Regional Weather Roundup
Issued by NWS

Home | Current Version | Previous Version | Text Only | Print | Product List | Glossary On
Versions: 1 2 3 4 5 6 7 8 9 10 11 12 13 14 15 16 17 18 19 20 21 22 23 24 25 26 27 28 29 30 31 32 33 34 35 36 37 38 39 40 41 42 43 44 45 46 47 48 49 50
000
ASUS44 KJAN 011310
RWRMS

MISSISSIPPI HOURLY WEATHER ROUNDUP
NATIONAL WEATHER SERVICE JACKSON MS
800 AM CDT TUE SEP 01 2015

NOTE: "FAIR: INDICATES FEW OR NO CLOUDS BELOW 12,000 FEET WITH NO
SIGNIFICANT WEATHER AND/OR OBSTRUCTIONS TO VISIBILITY.

MSZ001>002-007>008-010>013-018>021-025>028-034>036-011400-
NORTHWEST MISSISSIPPI

CITY           SKY/WX    TMP DP  RH WIND       PRES   REMARKS
CLARKSDALE     FAIR      73  73 100 E5        30.10R
CLEVELAND      FAIR      75  72  89 SE3       30.08R
GREENWOOD      SUNNY     75  68  78 NE7       30.08S
GREENVILLE     PTSUNNY   75  70  84 CALM      30.07R HAZE
OLIVE BRANCH   MOSUNNY   70  70 100 CALM      30.11S
OXFORD         FAIR      72  68  88 SE3       30.14R
TUNICA         MOSUNNY   72  70  94 CALM      30.10S
$$

MSZ003>006-009-014>017-022>024-029>033-037>039-011400-
NORTHEAST MISSISSIPPI

CITY           SKY/WX    TMP DP  RH WIND       PRES   REMARKS
COLUMBUS AFB   SUNNY     71  69  92 NE1       30.11S
CORINTH        FAIR      68  66  94 CALM      30.13R
GOLDN TRIANGLE SUNNY     73  66  78 E6        30.10S
STARKVILLE     FAIR      72  70  94 E3        30.11F
TUPELO         SUNNY     72  68  87 CALM      30.12R
$$

MSZ040-058-011400-
CENTRAL MISSISSIPPI

CITY           SKY/WX    TMP DP  RH WIND       PRES   REMARKS
JACKSON INTL   MOSUNNY   77  69  76 CALM      30.07F
JACKSON HAWKNS MOSUNNY   77  70  79 NW3       30.08S
MERIDIAN KEY   PTSUNNY   74  70  87 CALM      30.09S
MERIDIAN NAS   MOSUNNY   73  69  87 CALM      30.10R
VICKSBURG      MOSUNNY   74  70  87 CALM      30.07S
$$

MSZ059>079-011400-
SOUTH MISSISSIPPI

CITY           SKY/WX    TMP DP  RH WIND       PRES   REMARKS
BROOKHAVEN       N/A     75  72  88 N3        30.10S
HATTIESBURG    SUNNY     74  70  87 MISG      30.08S
MCCOMB         SUNNY     75  71  87 N5        30.08S
NATCHEZ        MOSUNNY   72  66  83 CALM      30.09R
PINE BELT      SUNNY     75  66  73 CALM      30.10R
$$

MSZ080>082-011400-
COASTAL MISSISSIPPI

CITY           SKY/WX    TMP DP  RH WIND       PRES   REMARKS
BAY ST LOUIS   SUNNY     72  66  83 CALM      30.06S
BILOXI         SUNNY     76  71  86 NE3       30.06S
PASCAGOULA     SUNNY     74  72  93 CALM      30.07F
GULFPORT       SUNNY     76  70  82 E3        30.06S
$$


USA.gov is the U.S. government's official web portal to all federal, state and local government web resources and services.